RADUGA 27 [-]

Last updated on June 27, 2019, 3:44 a.m. UTC

1 21132U 91014A   19177.15535782  .00000105  00000-0  00000+0 0  9990
2 21132  15.4072 358.6283 0004762  10.1912 345.2978  1.00233020103753
UTC
Height (km)
Latitude
Longitude
Inclination
Orbital Period
UTC large
Height (km)
Speed (km/s)
/
Latitude / Longitude
Inclination (degrees)
Orbital Period (minutes)
Azimuth
Elevation
Range (km)
Doppler Factor
iOS Compass Heading
iOS Angle

Next 30 passes for location: Hong Kong

Rise time Rise Azimuth (degrees) Set time Set Azimuth (degrees) Duration Max altitude (degrees)

No matching passes for this satellites